Flag for Austria Weather past 2 weeks in Melk, Lower Austria, Austria

Now
65 °F

Mild.


Feels Like: 65 °F
Forecast: 51 / 74 °F
Wind: 3 mph from East

Location: Amstetten

Current Time: Sep 17, 2014 at 8:45:03 PM

Latest Report: Sep 17, 2014 at 8:00 PM


Visibility: N/A

Pressure: 29.95 "Hg

Humidity: 65%

Dew point: 52 °F

Location of MelkLocation

Historic Weather in Melk — Graph

°F

Melk temperature yesterday

Maximum temperature yesterday: 70 °F (at 4:00 PM)
Minimum temperature yesterday: 57 °F (at 4:00 AM)
Average temperature yesterday: 63 °F

Past Weeks' High & Low Weather Summary

 TemperatureHumidityPressure
High79 °F (Sep 8, 4:00 PM)100% (Sep 3, 8:00 AM)30.14 "Hg (Sep 3, 8:00 AM)
Low53 °F (Sep 8, 7:00 AM)40% (Sep 17, 5:00 PM)29.88 "Hg (Sep 12, 6:00 AM)
Average61 °F87%30.01 "Hg
* Reported Sep 2 7:00 PM — Sep 17 7:00 PM, Melk, Weather by CustomWeather, © 2014

Note: Actual official high and low records may vary slightly from our data, if they occured in-between our weather recording intervals... More about our weather records

Advertising

Melk weather history for previous 24 hours

 ConditionsComfort  
Time TempWeatherWind HumidityBarometerVisibility
7:00 PM
Sep 17
68 °FMild.2 mph59%29.93 "HgN/A
6:00 PM74 °FMild.2 mph46%29.93 "HgN/A
5:00 PM75 °FMild.5 mph40%29.93 "HgN/A
4:00 PM76 °FMild.3 mph41%29.92 "HgN/A
3:00 PM76 °FMild.5 mph44%29.93 "HgN/A
2:00 PM74 °FMild.5 mph45%29.94 "HgN/A
1:00 PM73 °FMild.6 mph53%29.95 "HgN/A
12:00 PM70 °FMild.5 mph60%29.97 "HgN/A
11:00 AM66 °FMild.6 mph68%29.98 "HgN/A
10:00 AM63 °FMild.5 mph76%30.00 "HgN/A
9:00 AM59 °FCool.5 mph83%30.01 "HgN/A
8:00 AM56 °FSunny.2 mph91%30.01 "HgN/A
7:00 AM55 °FCool.3 mph93%30.01 "HgN/A
6:00 AM56 °FCool.3 mph93%30.00 "HgN/A
5:00 AM56 °FCool.3 mph93%30.01 "HgN/A
4:00 AM56 °FCool.2 mph93%30.02 "HgN/A
3:00 AM57 °FCool.3 mph92%30.02 "HgN/A
2:00 AM57 °FCool.2 mph92%30.02 "HgN/A
1:00 AM58 °FCool.2 mph91%30.03 "HgN/A
12:00 AM59 °FCool.3 mph90%30.03 "HgN/A
11:00 PM
Sep 16
60 °FCool.3 mph88%30.03 "HgN/A
10:00 PM61 °FCool.3 mph87%30.02 "HgN/A
9:00 PM62 °FMild.3 mph84%30.02 "HgN/A
8:00 PM64 °FMild.3 mph79%30.01 "HgN/A
Weather by CustomWeather, © 2014

See weather overviewHow to use our weather pages